TimeCST,TemperatureF,Dew PointF,Humidity,Sea Level PressureIn,VisibilityMPH,Wind Direction,Wind SpeedMPH,Gust SpeedMPH,PrecipitationIn,Events,Conditions,WindDirDegrees,DateUTC
12:52 AM,10.9,-2.0,56,30.21,10.0,NW,4.6,-,N/A,,Clear,310,2013-02-17 06:52:00
1:52 AM,10.0,-2.0,58,30.20,10.0,WNW,6.9,-,N/A,,Clear,290,2013-02-17 07:52:00
2:52 AM,10.0,-2.0,58,30.20,10.0,WNW,8.1,-,N/A,,Clear,300,2013-02-17 08:52:00
3:52 AM,10.0,-0.9,61,30.20,10.0,WNW,5.8,-,N/A,,Clear,300,2013-02-17 09:52:00
4:52 AM,9.0,-0.9,64,30.21,10.0,Calm,Calm,-,N/A,,Clear,0,2013-02-17 10:52:00
5:52 AM,9.0,-0.9,64,30.23,10.0,WNW,5.8,-,N/A,,Partly Cloudy,290,2013-02-17 11:52:00
6:52 AM,9.0,-0.9,64,30.23,10.0,WNW,4.6,-,N/A,,Partly Cloudy,290,2013-02-17 12:52:00
7:52 AM,10.9,-0.9,59,30.24,10.0,NW,3.5,-,N/A,,Partly Cloudy,310,2013-02-17 13:52:00
8:52 AM,15.1,1.0,54,30.24,10.0,Calm,Calm,-,N/A,,Partly Cloudy,0,2013-02-17 14:52:00
9:52 AM,17.6,-0.4,45,30.19,10.0,Variable,3.5,-,N/A,,Partly Cloudy,0,2013-02-17 15:52:00
10:52 AM,19.0,-2.9,38,30.23,10.0,ESE,3.5,-,N/A,,Partly Cloudy,110,2013-02-17 16:52:00
11:52 AM,21.0,-0.9,38,30.22,10.0,South,4.6,-,N/A,,Scattered Clouds,170,2013-02-17 17:52:00
12:52 PM,21.9,-0.0,38,30.20,10.0,SSW,4.6,-,N/A,,Partly Cloudy,200,2013-02-17 18:52:00
1:52 PM,23.0,1.0,39,30.19,10.0,SSW,8.1,-,N/A,,Partly Cloudy,200,2013-02-17 19:52:00
2:52 PM,23.0,3.0,42,30.16,10.0,SSW,6.9,-,N/A,,Partly Cloudy,200,2013-02-17 20:52:00
3:52 PM,24.1,3.9,42,30.14,10.0,South,8.1,-,N/A,,Scattered Clouds,170,2013-02-17 21:52:00
4:52 PM,24.1,5.0,44,30.12,10.0,SSE,6.9,-,N/A,,Scattered Clouds,160,2013-02-17 22:52:00
5:52 PM,21.0,9.0,60,30.13,10.0,SSE,5.8,-,N/A,,Scattered Clouds,150,2013-02-17 23:52:00
6:52 PM,21.9,10.0,60,30.12,10.0,South,4.6,-,N/A,,Scattered Clouds,170,2013-02-18 00:52:00
7:52 PM,23.0,10.9,60,30.10,10.0,SSE,6.9,-,N/A,,Scattered Clouds,160,2013-02-18 01:52:00
8:52 PM,25.0,10.9,55,30.08,10.0,SSE,9.2,-,N/A,,Mostly Cloudy,160,2013-02-18 02:52:00
9:52 PM,25.0,10.0,53,30.07,10.0,South,8.1,-,N/A,,Mostly Cloudy,170,2013-02-18 03:52:00
11:52 PM,28.9,17.1,61,30.02,10.0,SSE,11.5,-,N/A,,Overcast,160,2013-02-18 05:52:00